This is the latest recevied weather packets stored in our database for station/object KF6YUA. If no packets are shown the sender has not sent any weather packets the latest 10 day(s).
| Time | Temp. | Humidity | Pressure | Rain* | Wind** | Luminosity | Snow |
|---|---|---|---|---|---|---|---|
| 1777754454 | 14.44° C | 86% | 1015.5 hPa | 0 mm | - | 146 W/m² | - |
| 1777754151 | 13.89° C | 88% | 1015.6 hPa | 0 mm | - | 150 W/m² | - |
| 1777753848 | 13.89° C | 86% | 1015.6 hPa | 0 mm | - | 170 W/m² | - |
| 1777753544 | 13.89° C | 87% | 1015.5 hPa | 0 mm | - | 181 W/m² | - |
| 1777753243 | 13.89° C | 87% | 1015.4 hPa | 0 mm | - | 175 W/m² | - |
| 1777752938 | 13.89° C | 86% | 1015.6 hPa | 0 mm | - | 163 W/m² | - |
| 1777752635 | 14.44° C | 87% | 1015.6 hPa | 0 mm | - | 170 W/m² | - |
| 1777752331 | 13.89° C | 86% | 1015.6 hPa | 0 mm | - | 157 W/m² | - |
| 1777752029 | 14.44° C | 86% | 1015.7 hPa | 0 mm | - | 159 W/m² | - |
| 1777751726 | 14.44° C | 87% | 1015.7 hPa | 0 mm | - | 172 W/m² | - |
| 1777751422 | 13.89° C | 86% | 1015.7 hPa | 0 mm | - | 175 W/m² | - |
| 1777751119 | 14.44° C | 87% | 1015.7 hPa | 0 mm | - | 174 W/m² | - |
| 1777750815 | 14.44° C | 86% | 1015.7 hPa | 0 mm | - | 175 W/m² | - |
| 1777750513 | 14.44° C | 86% | 1015.7 hPa | 0 mm | - | 153 W/m² | - |
| 1777750209 | 14.44° C | 86% | 1015.7 hPa | 0 mm | - | 166 W/m² | - |
| 1777749905 | 14.44° C | 86% | 1015.9 hPa | 0 mm | - | 188 W/m² | - |
| 1777749602 | 14.44° C | 86% | 1015.6 hPa | 0 mm | - | 176 W/m² | - |
| 1777749299 | 13.89° C | 87% | 1015.7 hPa | 0 mm | - | 184 W/m² | - |
| 1777748997 | 13.89° C | 85% | 1015.8 hPa | 0 mm | - | 182 W/m² | - |
| 1777748694 | 14.44° C | 86% | 1016 hPa | 0 mm | - | 165 W/m² | - |
| 1777748390 | 13.89° C | 87% | 1015.7 hPa | 0 mm | - | 148 W/m² | - |
| 1777748086 | 13.89° C | 86% | 1015.8 hPa | 0 mm | - | 147 W/m² | - |
| 1777747783 | 14.44° C | 85% | 1015.7 hPa | 0 mm | - | 170 W/m² | - |
| 1777747478 | 13.89° C | 87% | 1016 hPa | 0 mm | - | 197 W/m² | - |
| 1777747175 | 13.89° C | 86% | 1015.9 hPa | 0 mm | - | 170 W/m² | - |
* Rain latest hour (hover to see other rain measurements)
** Current wind speed in m/s (hover to see current wind gust speed)